Location: Krasnoyarskiy Pitomnik
(51.1333°N, 71.6167°E)
Time: 10:18:31
(UTC+00:00)

Cosmos 1544 Rocket - Pass Details

Date: 22 October 2021
Orbit: 603 x 632 km, 82.5° (Epoch: 07 December)

Event Time Altitude Azimuth Distance (km) Brightness Sun altitude
Rises 13:33:24 0° 182° (S) 2,912 7.1 -14.3°
Reaches altitude 10° 13:35:38 10° 180° (S) 2,010 6.2 -14.6°
Maximum altitude 13:40:04 71° 97° (E) 673 3.5 -15.3°
Drops below altitude 10° 13:44:33 10° 14° (NNE) 2,024 6.1 -16.0°
Sets 13:46:48 0° 13° (NNE) 2,934 6.9 -16.4°
